[[{"header":{"parameterUnit":"m.s-1","parameterCategory":1,"la1":30.2991,"la2":30.254,"lo1":-89.0895,"lo2":-89.0444,"dy":0.0017,"dx":0.0017,"nx":28,"ny":28,"refTime":"2023-08-29T09:00:00:Z","depth":0,"parameterNumber":2,"parameterNumberName":"U-component_of_WINDS"},"data":[0,0,0,0,0,0,0,0,0,0,0,0,0,0,0,0,0,0,0,0,0,0,0,0,0,0,0,0,0,0,0,0,0,0,0,0,0,0,0,0,0,0,0,0,0,0,0,0,0,0,0,0,0,0,0,0,0,0,-3.1369,-3.1369,0,-3.136,-3.136,-3.136,-3.1292,-3.1291,-3.1289,-3.1288,-3.1278,-3.128,-3.1281,0,0,0,0,0,0,0,0,0,0,0,0,0,-3.133,-3.1331,-3.1369,-3.1369,-3.1369,-3.136,-3.136,-3.136,-3.1293,-3.1291,-3.1289,-3.1287,-3.1278,-3.128,-3.1281,0,0,0,0,0,0,0,0,0,0,0,0,0,-3.1337,-3.1331,-3.1369,-3.1335,-3.1331,-3.136,-3.136,-3.136,-3.1293,-3.1291,-3.1288,-3.1286,-3.1278,-3.1279,-3.1281,-3.1343,0,0,-3.1287,-3.1288,0,0,0,0,0,0,0,0,-3.1336,-3.1338,-3.134,-3.1337,-3.1333,-3.1325,-3.1343,-3.1354,-3.1294,-3.1308,-3.1287,-3.1285,-3.1296,-3.1296,-3.13,-3.1343,-3.1342,-3.1288,-3.1289,-3.129,-3.129,0,0,0,0,0,0,0,-3.1336,-3.1338,-3.1366,-3.134,-3.1336,-3.132,-3.1318,-3.1345,-3.1316,-3.1306,-3.1301,-3.1301,-3.1294,-3.1298,-3.1299,-3.1342,-3.1287,-3.1289,-3.129,-3.1291,-3.1437,-3.144,0,0,0,0,0,0,-3.134,-3.1338,-3.1366,-3.1365,-3.1329,-3.1323,-3.132,-3.133,-3.1315,-3.1311,-3.1303,-3.1298,-3.1296,-3.1297,-3.1299,-3.1371,-3.129,-3.1291,-3.1292,-3.1435,-3.1438,-3.1441,0,0,0,0,0,0,-3.134,-3.1343,-3.1366,-3.1351,-3.1352,-3.1326,-3.1337,-3.1331,-3.1336,-3.1313,-3.1308,-3.1313,-3.1294,-3.1296,-3.1333,-3.137,-3.1292,-3.1294,-3.1432,-3.1436,-3.1439,-3.1516,0,0,0,0,0,0,-3.1339,-3.1343,-3.1366,-3.1352,-3.1353,-3.1401,-3.134,-3.1333,-3.1339,-3.1332,-3.1321,-3.1317,-3.1292,-3.1331,-3.1335,-3.1371,-3.1296,-3.1428,-3.1433,-3.1438,-3.151,-3.1523,-3.1533,0,0,0,0,0,-3.1337,-3.1388,-3.1368,-3.1371,-3.1381,-3.1403,-3.1404,-3.1375,-3.1343,-3.1366,-3.1351,-3.1317,-3.1365,-3.1335,-3.1339,-3.1377,-3.1426,-3.1432,-3.1438,-3.1505,-3.152,-3.1533,0,0,0,0,0,0,-3.1407,-3.1385,-3.1363,-3.141,-3.1409,-3.1391,-3.1419,-3.1391,-3.1399,-3.1393,-3.1356,-3.1354,-3.1397,-3.1391,-3.1357,-3.1437,-3.139,-3.1397,-3.144,-3.1453,-3.1464,-3.1465,-3.1297,0,0,0,0,0,-3.1428,-3.1447,-3.1427,-3.1471,-3.1472,-3.1446,-3.1454,-3.1432,-3.143,-3.1429,-3.1417,-3.1416,-3.1431,-3.1442,-3.1454,-3.1509,-3.1506,-3.1537,-3.1549,-3.1558,-3.1565,-3.1595,-3.1608,-3.1461,-3.1461,-3.1461,0,0,-3.1471,-3.1462,-3.1476,-3.1485,-3.1481,-3.1503,-3.1446,-3.147,-3.1486,-3.1433,-3.1467,-3.1459,-3.1456,-3.1502,-3.1522,-3.1498,-3.1605,-3.1566,-3.1573,-3.1575,-3.1602,-3.1616,-3.1629,-3.1465,-3.1464,-3.1464,0,0,-3.1561,-3.1555,-3.1592,-3.159,-3.1586,-3.1569,-3.1578,-3.1565,-3.1558,-3.1592,-3.1553,-3.1571,-3.1598,-3.1597,-3.1601,-3.1693,-3.1662,-3.1698,-3.1757,-3.1786,-3.1798,-3.1808,-3.1842,-3.1854,-3.1705,-3.1705,-3.1705,0,-3.1615,-3.1645,-3.1614,-3.1642,-3.1647,-3.16,-3.1637,-3.1637,-3.1638,-3.1643,-3.1616,-3.1649,-3.1643,-3.169,-3.1713,-3.1717,-3.1726,-3.1699,-3.1799,-3.1809,-3.1818,-3.1849,-3.1862,-3.1709,-3.1709,-3.1708,-3.1708,0,-3.1713,-3.1735,-3.1764,-3.1767,-3.1776,-3.1808,-3.1782,-3.1795,-3.1773,-3.1759,-3.1795,-3.1787,-3.1798,-3.1807,-3.1786,-3.1852,-3.1837,-3.1805,-3.1757,-3.1837,-3.1866,-3.1878,-3.1716,-3.1714,-3.1713,-3.1712,0,0,-3.1844,-3.183,-3.1842,-3.1843,-3.1836,-3.1853,-3.1884,-3.1894,-3.1907,-3.1909,-3.1935,-3.1959,-3.193,-3.1934,-3.1912,-3.1938,-3.2013,-3.1903,-3.1902,-3.1924,-3.2087,-3.2111,-3.2126,-3.1993,-3.1995,-3.1997,-3.2087,0,-3.1931,-3.1983,-3.1956,-3.2012,-3.2032,-3.1989,-3.2016,-3.2016,-3.2004,-3.202,-3.2007,-3.2025,-3.1985,-3.1988,-3.2011,-3.1999,-3.2045,-3.1992,-3.2017,-3.2018,-3.2019,-3.2141,-3.2166,-3.2252,-3.2098,-3.21,-3.2102,0,-3.2039,-3.2047,-3.2104,-3.2095,-3.2103,-3.2128,-3.2137,-3.2152,-3.2151,-3.2141,-3.2147,-3.2119,-3.2149,-3.2102,-3.2144,-3.2109,-3.2117,-3.2113,-3.2116,-3.2117,-3.2065,-3.2146,-3.2278,-3.2292,-3.2119,-3.2118,-3.2116,0,-3.213,-3.2155,-3.2193,-3.2196,-3.2186,-3.2205,-3.2201,-3.2198,-3.2207,-3.2214,-3.222,-3.2231,-3.2238,-3.2247,-3.2224,-3.2192,-3.227,-3.222,-3.2263,-3.2264,-3.2281,-3.228,-3.2418,-3.2287,-3.2286,-3.2286,-3.2286,0,-3.223,-3.2267,-3.2234,-3.2258,-3.2299,-3.2269,-3.231,-3.2302,-3.23,-3.2322,-3.2285,-3.2306,-3.2274,-3.2292,-3.2274,-3.2313,-3.2316,-3.2309,-3.2304,-3.2312,-3.2313,-3.2318,-3.2311,-3.2289,-3.2289,-3.2288,-3.2287,0,-3.2339,-3.2318,-3.2357,-3.2345,-3.2343,-3.2374,-3.2364,-3.2386,-3.2372,-3.2401,-3.2406,-3.2385,-3.2405,-3.2382,-3.24,-3.2388,-3.244,-3.2426,-3.2441,-3.2437,-3.2481,-3.2478,-3.2626,-3.2645,-3.2501,-3.2503,-3.2504,0,-3.2404,-3.2431,-3.2423,-3.2435,-3.2435,-3.2455,-3.2464,-3.2436,-3.2447,-3.2449,-3.2471,-3.2488,-3.25,-3.2534,-3.2521,-3.2535,-3.2521,-3.2572,-3.2522,-3.2531,-3.2522,-3.2521,-3.2525,-3.2582,-3.2584,-3.2585,-3.2586,0,-3.2521,-3.2511,-3.2525,-3.2538,-3.255,-3.2558,-3.2563,-3.2575,-3.2546,-3.2561,-3.2581,-3.2591,-3.261,-3.2628,-3.2638,-3.2635,-3.2607,-3.2602,-3.2613,-3.2622,-3.263,-3.2627,-3.2469,-3.2599,-3.2597,-3.2596,-3.2596,-3.2595,-3.2611,-3.2634,-3.2633,-3.2651,-3.2652,-3.2658,-3.2679,-3.2668,-3.2685,-3.2698,-3.2681,-3.2707,-3.2706,-3.2718,-3.2718,-3.2738,-3.2716,-3.2732,-3.2736,-3.274,-3.2747,-3.2627,-3.274,-3.274,-3.2739,-3.2739,-3.2739,0,-3.2727,-3.2725,-3.2742,-3.2751,-3.2766,-3.2738,-3.2743,-3.2757,-3.278,-3.2783,-3.2796,-3.282,-3.2837,-3.2826,-3.2841,-3.286,-3.2847,-3.2865,-3.2863,-3.2863,-3.2765,-3.2755,-3.2875,-3.2875,-3.2875,-3.2875,-3.2875,-3.2875,-3.279,-3.2828,-3.2818,-3.2857,-3.2854,-3.2879,-3.2885,-3.2891,-3.2892,-3.2921,-3.2936,-3.2929,-3.2926,-3.2941,-3.2956,-3.2952,-3.296,-3.2983,-3.2975,-3.2883,-3.287,-3.2857,-3.2847,-3.2984,-3.2985,-3.3071,-3.3072,-3.3072]},{"header":{"parameterUnit":"m.s-1","parameterCategory":1,"la1":30.2991,"la2":30.254,"lo1":-89.0895,"lo2":-89.0444,"dy":0.0017,"dx":0.0017,"nx":28,"ny":28,"refTime":"2023-08-29T09:00:00:Z","depth":0,"parameterNumber":3,"parameterNumberName":"V-component_of_WINDS"},"data":[0,0,0,0,0,0,0,0,0,0,0,0,0,0,0,0,0,0,0,0,0,0,0,0,0,0,0,0,0,0,0,0,0,0,0,0,0,0,0,0,0,0,0,0,0,0,0,0,0,0,0,0,0,0,0,0,0,0,-0.624,-0.624,0,-0.629,-0.629,-0.6291,-0.6285,-0.6285,-0.6284,-0.6283,-0.6334,-0.6336,-0.6338,0,0,0,0,0,0,0,0,0,0,0,0,0,-0.6139,-0.6141,-0.6239,-0.624,-0.6241,-0.6289,-0.629,-0.6291,-0.6286,-0.6285,-0.6284,-0.6283,-0.6333,-0.6335,-0.6338,0,0,0,0,0,0,0,0,0,0,0,0,0,-0.6185,-0.6142,-0.6239,-0.6244,-0.6245,-0.6289,-0.629,-0.6291,-0.6286,-0.6285,-0.6283,-0.6282,-0.6332,-0.6335,-0.6338,-0.6381,0,0,-0.6348,-0.6349,0,0,0,0,0,0,0,0,-0.6183,-0.6189,-0.6243,-0.6244,-0.6245,-0.628,-0.6273,-0.6321,-0.6286,-0.627,-0.6283,-0.6282,-0.6317,-0.6321,-0.6333,-0.6383,-0.6385,-0.6348,-0.635,-0.6351,-0.6352,0,0,0,0,0,0,0,-0.618,-0.6187,-0.6259,-0.6244,-0.6245,-0.6244,-0.6249,-0.6282,-0.6299,-0.6272,-0.6271,-0.6277,-0.6317,-0.633,-0.6334,-0.6386,-0.6348,-0.6351,-0.6353,-0.6354,-0.6475,-0.6476,0,0,0,0,0,0,-0.6175,-0.6184,-0.6258,-0.6261,-0.621,-0.6246,-0.6252,-0.627,-0.6299,-0.6302,-0.6278,-0.6277,-0.6325,-0.633,-0.6336,-0.6389,-0.6351,-0.6354,-0.6356,-0.6474,-0.6475,-0.6477,0,0,0,0,0,0,-0.6173,-0.6182,-0.6256,-0.6223,-0.6232,-0.6249,-0.6269,-0.6272,-0.6285,-0.6304,-0.6307,-0.6288,-0.6324,-0.6331,-0.637,-0.639,-0.6355,-0.6358,-0.6472,-0.6474,-0.6476,-0.6494,0,0,0,0,0,0,-0.617,-0.6181,-0.6198,-0.6223,-0.6234,-0.6289,-0.6271,-0.6273,-0.629,-0.6289,-0.6314,-0.6318,-0.6324,-0.6365,-0.6373,-0.6394,-0.6361,-0.647,-0.6473,-0.6475,-0.6492,-0.6497,-0.6501,0,0,0,0,0,-0.6167,-0.62,-0.6199,-0.6207,-0.6255,-0.629,-0.6297,-0.6304,-0.6292,-0.6308,-0.6321,-0.6317,-0.6387,-0.6369,-0.6378,-0.64,-0.6469,-0.6472,-0.6475,-0.649,-0.6496,-0.6501,0,0,0,0,0,0,-0.6177,-0.6204,-0.6202,-0.6245,-0.6265,-0.6289,-0.6311,-0.6309,-0.6334,-0.6331,-0.6339,-0.6345,-0.6384,-0.6396,-0.6376,-0.6444,-0.6426,-0.6431,-0.6435,-0.644,-0.6445,-0.6441,-0.6363,0,0,0,0,0,-0.6184,-0.6211,-0.6233,-0.6269,-0.6279,-0.6293,-0.6309,-0.6313,-0.6334,-0.6343,-0.6358,-0.6379,-0.6406,-0.6424,-0.6449,-0.6493,-0.6499,-0.6513,-0.6517,-0.6521,-0.6525,-0.655,-0.6557,-0.6487,-0.6487,-0.6487,0,0,-0.6199,-0.6217,-0.6234,-0.6271,-0.6287,-0.6316,-0.6301,-0.633,-0.6351,-0.6347,-0.6385,-0.6397,-0.6421,-0.6463,-0.6482,-0.6474,-0.6546,-0.6525,-0.6527,-0.653,-0.6554,-0.6561,-0.6567,-0.6489,-0.6489,-0.6488,0,0,-0.6241,-0.6257,-0.6289,-0.6306,-0.6331,-0.6341,-0.6348,-0.6373,-0.6381,-0.6419,-0.6417,-0.6442,-0.6487,-0.6505,-0.652,-0.6569,-0.6566,-0.6577,-0.66,-0.6624,-0.663,-0.6635,-0.6653,-0.666,-0.6581,-0.6581,-0.6581,0,-0.6256,-0.6299,-0.6306,-0.6336,-0.6353,-0.6351,-0.6384,-0.64,-0.6432,-0.6444,-0.6434,-0.6492,-0.6508,-0.6554,-0.6567,-0.6578,-0.6588,-0.6574,-0.6629,-0.6634,-0.6638,-0.6656,-0.6663,-0.6582,-0.6582,-0.6582,-0.6582,0,-0.6317,-0.6347,-0.6369,-0.6401,-0.6421,-0.6452,-0.6464,-0.6482,-0.6485,-0.6495,-0.6534,-0.6553,-0.6583,-0.6594,-0.6596,-0.6641,-0.6635,-0.6627,-0.661,-0.6646,-0.6663,-0.667,-0.6584,-0.6584,-0.6583,-0.6583,0,0,-0.6367,-0.6403,-0.6411,-0.6426,-0.6454,-0.6477,-0.6508,-0.6538,-0.6555,-0.6577,-0.6604,-0.6643,-0.6636,-0.6652,-0.6656,-0.6678,-0.6717,-0.6667,-0.6668,-0.6676,-0.6768,-0.6775,-0.6783,-0.6715,-0.6716,-0.6717,-0.6767,0,-0.6413,-0.6469,-0.6477,-0.6527,-0.6555,-0.6553,-0.6581,-0.6601,-0.6611,-0.6636,-0.6647,-0.6675,-0.6663,-0.6674,-0.6695,-0.6707,-0.6735,-0.6704,-0.674,-0.6741,-0.6735,-0.6791,-0.6798,-0.6845,-0.6773,-0.6774,-0.6775,0,-0.6474,-0.6499,-0.6552,-0.6577,-0.6589,-0.6613,-0.6642,-0.6665,-0.6688,-0.6694,-0.6714,-0.6715,-0.6748,-0.6729,-0.6774,-0.6752,-0.6767,-0.6776,-0.6778,-0.6782,-0.6761,-0.6798,-0.6859,-0.6867,-0.6785,-0.6785,-0.6784,0,-0.6507,-0.6553,-0.6591,-0.6604,-0.6634,-0.6651,-0.6664,-0.6686,-0.6704,-0.6728,-0.674,-0.6767,-0.6783,-0.6804,-0.6813,-0.6798,-0.6858,-0.684,-0.6864,-0.6864,-0.6878,-0.6877,-0.6943,-0.6886,-0.6886,-0.6886,-0.6886,0,-0.6558,-0.659,-0.6606,-0.663,-0.6667,-0.6675,-0.6711,-0.6723,-0.6743,-0.6769,-0.6768,-0.6793,-0.6802,-0.6828,-0.6835,-0.6872,-0.6879,-0.6885,-0.6886,-0.6885,-0.6885,-0.6896,-0.6893,-0.6888,-0.6887,-0.6887,-0.6886,0,-0.6601,-0.6613,-0.6654,-0.6679,-0.6686,-0.6712,-0.6734,-0.6757,-0.6767,-0.68,-0.6808,-0.6824,-0.6854,-0.6865,-0.6901,-0.6906,-0.6949,-0.6948,-0.6942,-0.6943,-0.6967,-0.6965,-0.7044,-0.7055,-0.6989,-0.699,-0.699,0,-0.6633,-0.6658,-0.6686,-0.6704,-0.6718,-0.6746,-0.6764,-0.6773,-0.6792,-0.682,-0.684,-0.687,-0.6895,-0.6944,-0.6958,-0.6986,-0.6986,-0.7012,-0.699,-0.6989,-0.6988,-0.6986,-0.6989,-0.7016,-0.7017,-0.7017,-0.7018,0,-0.6689,-0.6694,-0.6721,-0.675,-0.6772,-0.6795,-0.6817,-0.6831,-0.6843,-0.6865,-0.6896,-0.6915,-0.6953,-0.6984,-0.7012,-0.7026,-0.7024,-0.7024,-0.7032,-0.7031,-0.7027,-0.7031,-0.6954,-0.7023,-0.7022,-0.7022,-0.7021,-0.7021,-0.6729,-0.6752,-0.6775,-0.6805,-0.6823,-0.6844,-0.6867,-0.688,-0.6907,-0.6939,-0.6942,-0.6976,-0.6998,-0.7037,-0.7052,-0.7078,-0.7071,-0.7082,-0.7085,-0.7087,-0.709,-0.7022,-0.7083,-0.7083,-0.7083,-0.7083,-0.7083,0,-0.6786,-0.6801,-0.6829,-0.686,-0.6884,-0.688,-0.6905,-0.6925,-0.6955,-0.6976,-0.7001,-0.7037,-0.7067,-0.7084,-0.7113,-0.7131,-0.7131,-0.7139,-0.7138,-0.7141,-0.7094,-0.7085,-0.7139,-0.7139,-0.7139,-0.7139,-0.7139,-0.7139,-0.6819,-0.6858,-0.6865,-0.6913,-0.6928,-0.6962,-0.6976,-0.6996,-0.7013,-0.7054,-0.7079,-0.709,-0.711,-0.714,-0.7167,-0.7172,-0.7183,-0.7191,-0.7195,-0.715,-0.7145,-0.7139,-0.7131,-0.7193,-0.7193,-0.724,-0.7241,-0.7241]}]]